CZ-6A DEB, 54583

Orbit data source: Space-Track

CZ-6A DEB, 54583 is space debris in SSO originally from a launch on Fri, 11 Nov 2022 UTC launched from the Taiyaun Space Center, China (TSC). Debris objects in space refer to the collection of defunct objects orbiting the Earth. Examples of debris include non-operational satellites, rocket bodies, and fragments generated from explosions, collisions, or faulty payload assembly.

Loading next visibility...
Identifier
54583, 2022-151MK
Orbit
SSO
Country
Flag of CNCN / PRC
Related business
Manufacturer
SAST
Mission
Spacecraft
Bus & Motor
Unknown
Mass
Unknown
Launch date (UTC)
2022-11-11 (4 years ago)
Launch vehicle
Unknown
Launch site
Taiyaun Space Center, China (TSC)
Object type
Payload
Rocket body
Debris
Shape & HBR
Unknown shape, 0.1 m
Radar Cross Section
Medium (>0.1 m² and <1 m²)

Expand to show TLE details & history
Last TLE update: 21 hours ago

TLE from 21 hours ago
0 CZ-6A DEB
1 54583U 22151MK  26206.43824064  .00001617  00000-0  93794-3 0  9993
2 54583  98.8611 193.7761 0084463 277.9016  81.2573 14.08447801188911
Epoch: 2026-07-25T10:31Z
TLE epoch observation values (Epoch: 2026-07-25T10:31:03.991Z)
Latitude
-0.00004°
Longitude
92.85896°
Altitude
858.788 km
Speed
7.428 km/s
True Right ascension
12h 55m 06s
True Declination
0° 00' 00"
Sunlit
Object was in daylight at epoch
Visualization orbit readout
Latitude
Unknown
Longitude
Unknown
Altitude
Unknown
Speed
Unknown
Apparent Right ascension
Unknown
Apparent Declination
Unknown
Sunlit
N/A
Visualization observer readout
Local Sidereal Time
21:09:40
Azimuth
Unknown
Elevation
Unknown
Doppler factor
Unknown
Orbital elements
Apogee altitude
923.021 km
Perigee altitude
800.718 km
Semi-major axis
7,240.006 km
Eccentricity
0.00845
Inclination
98.8611°
RAAN
193.7761°
Arg. of periapsis
277.9016°
True anomaly
82.21542°
Mean anomaly
81.2573°
Eccentric anomaly
81.73621°
Mean motion
3.52318 °/min
Orbital period
102.18 mins
BSTAR
0.00093794
Loading maneuver chart data...
Computing Atmospheric mass density...

Documentation

Showing up to 5 results
|